Home > Weather > Criciúma > Past weeks

Flag for Brazil Weather for the Past 2 Weeks in Criciúma, Santa Catarina, Brazil

Now
57 °F

Clear.


Feels Like: 56 °F
Forecast: 40 / 72 °F
Wind: 6 mph from Northwest

Location: Florianopolis Aeroporto

Current Time: May 2, 2016 at 5:34:01 AM

Latest Report: May 2, 2016 at 5:00 AM


Visibility: 10 mi

Pressure: 30.12 "Hg

Humidity: 88%

Dew Point: 54 °F

Location of CriciúmaLocation

Historic Weather in Criciúma — Graph

°F

Criciúma Temperature Yesterday

Maximum temperature yesterday: 70 °F (at 12:00 PM)
Minimum temperature yesterday: 50 °F (at 2:00 AM)
Average temperature yesterday: 61 °F

High & Low Weather Summary for the Past Weeks

 TemperatureHumidityPressure
High93 °F (Apr 18, 3:00 PM)94% (Apr 21, 10:00 PM)30.21 "Hg (Apr 21, 10:00 PM)
Low50 °F (Apr 28, 3:00 AM)25% (Apr 22, 10:00 AM)29.56 "Hg (Apr 25, 2:00 PM)
Average72 °F72%29.95 "Hg
* Reported Apr 17 4:00 AM — May 2 4:00 AM, Criciúma, Weather by CustomWeather, © 2016

Note: Actual official high and low records may vary slightly from our data, if they occured in-between our weather recording intervals... More about our weather records

Advertising

Criciúma Weather History for the Previous 24 Hours

Scroll right to see more
 ConditionsComfort  
Time TempWeatherWind HumidityBarometerVisibility
4:00 AM
Mon, May 2
57 °FClear.8 mph94%30.12 "Hg10 mi
3:00 AM59 °FClear.7 mph88%30.12 "Hg10 mi
2:00 AM57 °FClear.3 mph94%30.15 "Hg10 mi
1:00 AM59 °FClear.5 mph88%30.15 "Hg10 mi
12:00 AM59 °FClear.6 mph94%30.15 "Hg10 mi
11:00 PM
Sun, May 1
59 °FClear.6 mph94%30.15 "Hg10 mi
10:00 PM57 °FClear.No wind94%30.18 "Hg10 mi
9:00 PM57 °FClear.No wind94%30.18 "Hg10 mi
8:00 PM61 °FClear.No wind83%30.18 "Hg10 mi
7:00 PM61 °FClear.2 mph83%30.15 "Hg10 mi
6:00 PM63 °FClear.3 mph83%30.12 "Hg10 mi
5:00 PM66 °FClear.7 mph73%30.12 "Hg10 mi
4:00 PM68 °FSunny.9 mph64%30.09 "Hg10 mi
3:00 PM70 °FSunny.7 mph57%30.09 "Hg10 mi
2:00 PM70 °FSunny.8 mph57%30.09 "Hg10 mi
1:00 PM70 °FPassing clouds.7 mph53%30.12 "HgN/A
12:00 PM70 °FPassing clouds.6 mph53%30.15 "HgN/A
11:00 AM66 °FSunny.5 mph56%30.18 "Hg10 mi
10:00 AM64 °FPassing clouds.5 mph60%30.18 "HgN/A
9:00 AM63 °FPassing clouds.5 mph59%30.18 "HgN/A
8:00 AM61 °FSunny.7 mph68%30.15 "Hg10 mi
7:00 AM59 °FSunny.7 mph63%30.12 "Hg10 mi
6:00 AM57 °FSunny.6 mph67%30.09 "Hg10 mi
5:00 AM57 °FClear.3 mph67%30.09 "Hg10 mi
Weather by CustomWeather, © 2016

See weather overviewHow to use our weather pages